Terminal Aerodrome Forecast
Issued by NWS

Home | Current Version | Previous Version | Text Only | Print | Product List | Glossary On
Versions: 1 2 3 4 5 6 7 8 9 10 11 12 13 14 15 16 17 18 19 20 21 22 23 24 25 26 27 28 29 30 31 32 33 34 35 36 37 38 39 40 41 42 43 44 45 46 47 48
897
FTUS43 KDVN 261130
TAFCID
TAF
KCID 261130Z 2612/2712 32016G25KT P6SM SKC
     FM270100 32006KT P6SM FEW130 SCT200
     FM271000 11008KT P6SM VCSH SCT060 BKN090=

USA.gov is the U.S. government's official web portal to all federal, state and local government web resources and services.